Weather reports worldwide

Advertisment
Isle Of Portland, United Kingdom (3857): temperature & dewpoint: 04.07.2020 03:00:00 - 10.07.2020 03:00:00 (BST)Isle Of Portland, United Kingdom (3857): wind speed & gusts: 04.07.2020 03:00:00 - 10.07.2020 03:00:00 (BST)Isle Of Portland, United Kingdom (3857): wind direction: 04.07.2020 03:00:00 - 10.07.2020 03:00:00 (BST)Isle Of Portland, United Kingdom (3857): reduced air pressure: 04.07.2020 03:00:00 - 10.07.2020 03:00:00 (BST)Isle Of Portland, United Kingdom (3857): visibility: 04.07.2020 03:00:00 - 10.07.2020 03:00:00 (BST)Isle Of Portland, United Kingdom (3857): precipitation: 04.07.2020 03:00:00 - 10.07.2020 03:00:00 (BST)
Date & Time tt [°C] td [°C] ff [km/h] ff [kn] fx [km/h] fx [kn] dd ppp [hPa] vv [km] rr [mm]
10.07.2020 03:00:00 13,6 12,1 22 12 - - NNW 1015,1 26 0,0
10.07.2020 02:00:00 14,1 12,3 26 14 - - NNW 1014,8 45 0,0
10.07.2020 01:00:00 15,0 13,4 24 13 - - NW 1014,4 30 0,0
10.07.2020 00:00:00 15,0 13,3 31 17 - - WNW 1014,2 24 0,0
09.07.2020 23:00:00 15,3 13,6 28 15 - - WNW 1013,4 24 0,0
09.07.2020 22:00:00 15,4 14,1 24 13 - - WNW 1012,9 15 0,0
09.07.2020 21:00:00 15,8 14,6 31 17 - - WNW 1012,4 14 0,0
09.07.2020 20:00:00 15,6 14,8 34 18 - - W 1012,2 10 0,0
09.07.2020 19:00:00 15,4 14,8 31 17 46 25 W 1012,1 10 0,0
09.07.2020 18:00:00 15,3 14,4 35 19 - - WSW 1012,3 12 0,0
09.07.2020 17:00:00 15,6 14,8 29 16 46 25 WSW 1012,5 14 0,0
09.07.2020 16:00:00 15,7 15,1 34 18 46 25 WSW 1012,8 11 0,0
09.07.2020 15:00:00 15,9 15,1 35 19 52 28 WSW 1013,0 12 0,0
09.07.2020 14:00:00 16,2 15,3 37 20 50 27 SW 1013,1 10 0,0
09.07.2020 13:00:00 16,4 15,6 37 20 48 26 WSW 1013,1 9 0,0
09.07.2020 12:00:00 16,2 15,8 35 19 48 26 WSW 1013,2 2,2 0,0
09.07.2020 11:00:00 15,7 15,6 34 18 - - WSW 1013,2 1,7 0,0
09.07.2020 10:00:00 15,6 15,5 31 17 46 25 WSW 1013,3 7 0,0
09.07.2020 09:00:00 15,2 15,2 35 19 48 26 WSW 1013,5 5 0,0
09.07.2020 08:00:00 14,9 14,9 35 19 52 28 WSW 1013,5 4,9 0,0
09.07.2020 07:00:00 14,8 14,8 37 20 50 27 WSW 1013,4 7 0,0
09.07.2020 06:00:00 14,6 14,6 39 21 55 30 WSW 1013,7 3,1 0,0
09.07.2020 05:00:00 14,4 14,4 35 19 52 28 WSW 1014,4 8 0,0
09.07.2020 04:00:00 14,2 14,2 37 20 48 26 WSW 1014,6 5 0,0
09.07.2020 03:00:00 14,1 14,1 37 20 55 30 WSW 1015,2 0,9 0,0
09.07.2020 02:00:00 14,2 14,2 41 22 59 32 WSW 1015,4 1,5 0,0
09.07.2020 01:00:00 14,3 14,3 42 23 55 30 WSW 1015,4 0,7 0,0
09.07.2020 00:00:00 14,4 14,3 44 24 57 31 WSW 1015,6 1,6 0,0
08.07.2020 23:00:00 14,6 14,5 34 18 48 26 WSW 1015,7 5 0,0
08.07.2020 22:00:00 14,3 14,1 41 22 50 27 WSW 1016,0 0,2 0,0
08.07.2020 21:00:00 14,9 14,5 35 19 48 26 WSW 1015,8 5 0,0
08.07.2020 20:00:00 15,4 14,7 35 19 48 26 WSW 1016,0 7 0,0
08.07.2020 19:00:00 16,1 15,1 35 19 46 25 WSW 1016,1 8 0,0
08.07.2020 18:00:00 15,9 15,0 34 18 - - WSW 1016,3 9 0,0
08.07.2020 17:00:00 15,9 14,9 31 17 - - WSW 1016,7 9 0,0
08.07.2020 16:00:00 16,3 15,1 34 18 - - WSW 1016,7 - 0,0
08.07.2020 15:00:00 17,1 15,3 2 1 46 25 W 1016,7 - 1,0
08.07.2020 14:00:00 16,8 14,9 35 19 46 25 WSW 1016,5 - 0,4
08.07.2020 13:00:00 17,0 15,7 34 18 - - WSW 1016,4 - 0,0
08.07.2020 12:00:00 16,0 15,4 34 18 - - W 1016,5 9 0,0
08.07.2020 11:00:00 15,3 15,1 37 20 50 27 W 1016,5 7 0,0
08.07.2020 10:00:00 15,3 15,1 37 20 50 27 W 1016,2 8 0,0
08.07.2020 09:00:00 15,0 14,9 39 21 48 26 WSW 1016,1 9 0,0
08.07.2020 08:00:00 14,8 14,7 39 21 52 28 W 1015,9 6 0,0
08.07.2020 07:00:00 14,6 14,5 42 23 55 30 W 1015,6 0,7 0,0
08.07.2020 06:00:00 14,5 14,3 44 24 57 31 W 1015,6 6 0,0
08.07.2020 05:00:00 14,4 14,2 42 23 57 31 WSW 1015,5 7 0,0
08.07.2020 04:00:00 14,2 13,9 42 23 57 31 W 1015,7 7 0,0
08.07.2020 03:00:00 14,3 13,8 44 24 57 31 W 1016,3 9 0,0
08.07.2020 02:00:00 14,5 13,7 44 24 55 30 W 1016,9 9 0,0
08.07.2020 01:00:00 14,5 13,5 42 23 54 29 W 1017,5 11 0,0
08.07.2020 00:00:00 14,4 13,3 41 22 55 30 W 1017,6 12 0,0
07.07.2020 23:00:00 14,6 13,3 42 23 57 31 W 1018,1 10 0,0
07.07.2020 22:00:00 14,4 12,9 41 22 54 29 W 1018,0 13 0,0
07.07.2020 21:00:00 14,5 12,7 39 21 54 29 W 1018,4 13 0,0
07.07.2020 20:00:00 15,0 12,7 42 23 59 32 W 1018,6 13 0,0
07.07.2020 19:00:00 14,9 12,2 46 25 59 32 WSW 1019,1 13 0,0
07.07.2020 18:00:00 15,2 12,2 44 24 55 30 WSW 1019,5 14 0,0
07.07.2020 17:00:00 15,3 11,3 41 22 52 28 WSW 1020,2 15 0,0
07.07.2020 16:00:00 16,4 11,6 37 20 46 25 WSW 1020,7 19 0,0
07.07.2020 15:00:00 15,7 11,0 34 18 - - WSW 1021,1 19 0,0
07.07.2020 14:00:00 16,7 11,3 31 17 - - WSW 1021,6 24 0,0
07.07.2020 13:00:00 16,9 11,3 26 14 - - WSW 1022,2 30 0,0
07.07.2020 12:00:00 17,1 12,2 21 11 - - WSW 1022,2 20 0,0
07.07.2020 11:00:00 15,3 11,3 18 10 - - WSW 1022,5 24 0,0
07.07.2020 10:00:00 15,6 11,0 15 8 - - WSW 1022,9 28 0,0
07.07.2020 09:00:00 15,2 11,9 16 9 - - W 1022,9 18 0,0
07.07.2020 08:00:00 14,6 11,2 11 6 - - W 1022,8 21 0,0
07.07.2020 07:00:00 13,9 11,0 5 3 - - W 1022,9 30 0,0
07.07.2020 06:00:00 13,2 10,1 8 4 - - WNW 1023,1 30 0,0
07.07.2020 05:00:00 13,2 9,4 11 6 - - NW 1023,0 40 0,0
07.07.2020 04:00:00 13,2 9,6 13 7 - - NW 1023,3 29 0,0
07.07.2020 03:00:00 13,4 9,7 21 11 - - NW 1023,6 40 0,0
07.07.2020 02:00:00 13,2 9,8 18 10 - - NW 1024,0 40 0,0
07.07.2020 01:00:00 13,4 10,0 21 11 - - NW 1024,3 30 0,0
07.07.2020 00:00:00 13,9 10,4 24 13 - - NW 1024,5 30 0,0
06.07.2020 23:00:00 14,9 11,4 18 10 - - NW 1024,5 27 0,0
06.07.2020 22:00:00 15,0 11,6 16 9 - - NW 1024,5 35 0,0
06.07.2020 21:00:00 15,8 12,5 21 11 - - WNW 1024,0 25 0,0
06.07.2020 20:00:00 16,4 11,8 28 15 - - WNW 1023,7 30 0,0
06.07.2020 19:00:00 16,9 11,6 24 13 - - W 1023,6 30 0,0
06.07.2020 18:00:00 17,3 11,6 28 15 - - W 1023,4 24 0,0
06.07.2020 17:00:00 16,6 11,1 29 16 - - W 1023,6 25 0,0
06.07.2020 16:00:00 16,6 10,7 22 12 - - W 1023,4 30 0,0
06.07.2020 15:00:00 16,6 10,4 22 12 - - W 1023,4 30 0,0
06.07.2020 14:00:00 16,4 9,6 29 16 - - WNW 1023,0 29 0,0
06.07.2020 13:00:00 16,3 9,5 31 17 - - WNW 1022,7 23 0,0
06.07.2020 12:00:00 15,0 9,5 35 19 - - W 1022,4 28 0,0
06.07.2020 11:00:00 14,8 9,8 29 16 - - W 1021,9 22 0,0
06.07.2020 10:00:00 15,0 9,8 37 20 52 28 WNW 1021,5 19 0,0
06.07.2020 09:00:00 14,2 9,2 41 22 55 30 WNW 1020,7 20 0,0
06.07.2020 08:00:00 13,9 9,2 41 22 59 32 WNW 1020,1 20 0,0
06.07.2020 07:00:00 13,8 9,6 46 25 61 33 WNW 1019,0 14 0,0
06.07.2020 06:00:00 13,7 9,9 46 25 61 33 WNW 1018,5 17 0,0
06.07.2020 05:00:00 13,9 10,1 41 22 63 34 WNW 1018,4 14 0,0
06.07.2020 04:00:00 13,9 10,3 50 27 68 37 WNW 1017,8 13 0,0
06.07.2020 03:00:00 13,8 9,9 46 25 59 32 WNW 1017,9 16 0,0
06.07.2020 02:00:00 13,7 10,3 35 19 55 30 W 1018,4 15 0,0
06.07.2020 01:00:00 13,9 9,9 42 23 55 30 W 1018,2 13 0,0
06.07.2020 00:00:00 14,0 9,7 42 23 67 36 W 1017,7 12 0,0
05.07.2020 23:00:00 14,2 9,2 54 29 68 37 W 1016,8 12 0,0
05.07.2020 22:00:00 14,6 9,0 46 25 63 34 WNW 1017,1 15 0,0
05.07.2020 21:00:00 15,1 9,5 46 25 59 32 W 1016,1 14 0,0
05.07.2020 20:00:00 15,8 9,3 46 25 65 35 W 1015,7 15 0,0
05.07.2020 19:00:00 16,4 10,2 42 23 55 30 W 1015,6 22 0,0
05.07.2020 18:00:00 16,8 10,4 41 22 61 33 W 1015,5 19 0,0
05.07.2020 17:00:00 15,6 11,5 48 26 61 33 WSW 1015,6 11 0,0
05.07.2020 16:00:00 16,5 11,7 44 24 55 30 WSW 1015,5 13 0,0
05.07.2020 15:00:00 17,0 11,2 29 16 48 26 W 1015,5 15 0,0
05.07.2020 14:00:00 16,9 10,3 39 21 59 32 W 1015,2 24 0,0
05.07.2020 13:00:00 17,2 10,6 39 21 57 31 W 1014,8 16 0,0
05.07.2020 12:00:00 16,5 10,1 46 25 57 31 W 1014,1 17 0,0
05.07.2020 11:00:00 16,4 12,4 31 17 - - W 1014,0 30 0,0
05.07.2020 10:00:00 15,9 12,2 37 20 63 34 W 1013,8 17 0,0
05.07.2020 09:00:00 15,4 13,6 46 25 59 32 WNW 1012,9 17 0,0
05.07.2020 08:00:00 15,3 15,2 39 21 63 34 W 1012,1 8 0,0
05.07.2020 07:00:00 15,0 15,0 50 27 65 35 WSW 1011,3 7 0,0
05.07.2020 06:00:00 15,1 15,0 50 27 70 38 W 1011,3 6 0,0
05.07.2020 05:00:00 15,1 15,0 52 28 70 38 WSW 1011,2 8 0,0
05.07.2020 04:00:00 15,0 15,0 48 26 68 37 WSW 1011,5 7 0,0
05.07.2020 03:00:00 14,9 14,9 48 26 68 37 WSW 1011,7 7 0,0
05.07.2020 02:00:00 14,9 14,8 55 30 68 37 WSW 1012,4 0,9 0,0
05.07.2020 01:00:00 14,9 14,7 44 24 63 34 WSW 1013,0 5 0,0
05.07.2020 00:00:00 14,7 14,5 37 20 63 34 WSW 1013,4 11 0,0
04.07.2020 23:00:00 15,0 14,7 39 21 54 29 WSW 1013,6 4,4 0,0
04.07.2020 22:00:00 15,0 14,7 42 23 55 30 WSW 1013,5 9 0,0
04.07.2020 21:00:00 14,9 14,8 46 25 59 32 WSW 1012,9 6 0,0
04.07.2020 20:00:00 15,1 14,9 46 25 59 32 WSW 1012,9 2,5 0,0
04.07.2020 19:00:00 15,4 15,1 42 23 59 32 WSW 1012,9 3,5 0,0
04.07.2020 18:00:00 15,7 15,3 44 24 63 34 WSW 1012,9 5 0,0
04.07.2020 17:00:00 15,7 15,4 50 27 61 33 WSW 1012,7 6 0,0
04.07.2020 16:00:00 15,9 15,7 44 24 57 31 WSW 1012,9 9 0,0
04.07.2020 15:00:00 15,7 15,6 42 23 54 29 WSW 1012,9 8 0,0
04.07.2020 14:00:00 15,4 15,4 41 22 55 30 WSW 1013,2 6 0,0
04.07.2020 13:00:00 15,4 15,4 41 22 54 29 WSW 1013,1 0,8 0,0
04.07.2020 12:00:00 15,6 15,6 41 22 54 29 WSW 1013,0 4,9 0,0
04.07.2020 11:00:00 15,7 15,7 37 20 54 29 WSW 1012,9 2,1 0,0
04.07.2020 10:00:00 15,5 15,5 41 22 52 28 WSW 1012,5 5 0,0
04.07.2020 09:00:00 15,4 15,4 41 22 50 27 WSW 1012,8 6 0,0
04.07.2020 08:00:00 15,3 15,3 39 21 54 29 WSW 1012,8 3,0 0,0
04.07.2020 07:00:00 15,3 15,2 44 24 57 31 WSW 1012,8 3,4 0,0
04.07.2020 06:00:00 15,2 15,2 42 23 57 31 WSW 1012,6 3,0 0,0
04.07.2020 05:00:00 15,1 15,0 46 25 61 33 WSW 1012,7 3,6 0,0
04.07.2020 04:00:00 14,9 14,8 44 24 59 32 SW 1013,0 2,4 0,2
04.07.2020 03:00:00 14,9 14,8 44 24 57 31 SW 1013,5 5 0,0

tt = temperature
td = dewpoint
ff = wind speed
fx = gusts
dd = wind direction
ppp = reduced air pressure
vv = visibility
rr = precipitation

Next stations